Flag for Canada Weather past 2 weeks in Strathcona County, Alberta, Canada

Now
23 °F

Passing clouds.


Feels Like: 17 °F
Forecast: 4 / 26 °F
Wind: 5 mph from Southwest

Location: Edmonton Municipal

Current Time: Mar 1, 2015 at 10:28:10 PM

Latest Report: Mar 1, 2015 at 10:00 PM


Visibility: 9 mi

Pressure: 29.93 "Hg

Humidity: 68%

Dew point: 14 °F

Location of Strathcona CountyLocation

Historic Weather in Strathcona County — Graph

°F

Strathcona County temperature yesterday

Maximum temperature yesterday: 27 °F (at 2:00 PM)
Minimum temperature yesterday: 5 °F (at 3:00 AM)
Average temperature yesterday: 17 °F

Past Weeks' High & Low Weather Summary

 TemperatureHumidityPressure
High46 °F (Feb 23, 3:00 PM)93% (Feb 17, 1:00 PM)30.76 "Hg (Feb 17, 1:00 PM)
Low-2 °F (Feb 26, 2:00 AM)43% (Feb 21, 3:00 PM)29.81 "Hg (Feb 19, 2:59 AM)
Average22 °F72%30.28 "Hg
* Reported Feb 14 9:00 PM — Mar 1 9:00 PM, Strathcona County, Weather by CustomWeather, © 2015

Note: Actual official high and low records may vary slightly from our data, if they occured in-between our weather recording intervals... More about our weather records

Advertising

Strathcona County weather history for previous 24 hours

 ConditionsComfort  
Time TempWeatherWind HumidityBarometerVisibility
9:00 PM
Sun, Mar 1
23 °FOvercast.6 mph68%29.94 "Hg9 mi
8:00 PM23 °FPassing clouds.7 mph68%29.96 "Hg9 mi
7:00 PM25 °FClear.10 mph63%29.97 "Hg9 mi
6:00 PM25 °FSunny.15 mph63%29.98 "Hg9 mi
5:00 PM27 °FSunny.17 mph59%30.01 "Hg9 mi
4:00 PM28 °FSunny.14 mph55%30.04 "Hg9 mi
3:00 PM28 °FSunny.15 mph55%30.06 "Hg9 mi
2:00 PM28 °FSunny.14 mph59%30.10 "Hg9 mi
1:00 PM28 °FSunny.9 mph55%30.14 "Hg9 mi
12:00 PM27 °FSunny.15 mph54%30.17 "Hg9 mi
11:00 AM25 °FSunny.9 mph54%30.20 "Hg9 mi
10:00 AM18 °FSunny.8 mph68%30.24 "Hg9 mi
9:00 AM14 °FSunny.2 mph73%30.26 "Hg9 mi
8:00 AM9 °FSunny.2 mph85%30.27 "Hg9 mi
7:00 AM9 °FClear.3 mph85%30.30 "Hg9 mi
6:00 AM10 °FClear.3 mph79%30.30 "Hg9 mi
5:00 AM12 °FClear.2 mph85%30.30 "Hg9 mi
4:00 AM14 °FClear.5 mph79%30.31 "Hg9 mi
3:00 AM12 °FClear.No wind85%30.32 "Hg9 mi
2:00 AM16 °FOvercast.No wind73%30.33 "Hg9 mi
1:00 AM18 °FOvercast.2 mph73%30.34 "Hg9 mi
12:00 AM19 °FOvercast.5 mph68%30.34 "Hg9 mi
11:00 PM
Sat, Feb 28
21 °FOvercast.6 mph68%30.33 "Hg9 mi
10:00 PM23 °FOvercast.5 mph68%30.33 "Hg9 mi
Weather by CustomWeather, © 2015

See weather overviewHow to use our weather pages